User: anonymous   Login
Location: Wawayanda State Park
(41.1833°N, 74.4333°W)
Time: 11:02:11
(UTC-05:00)
Language:

RESURS DK-1 - Orbit

View from above orbital plane
View from above orbital plane
View from above satellite
View from above satellite

Ground track
Ground track

The orbit data is extracted from the following two-line orbital elements,

1 29228U 06021A   15065.44770346  .00001186  00000-0  99468-4 0  9990
2 29228 069.9369 058.1683 0006258 212.5677 307.3847 15.01290571482927
Epoch (UTC): 06 March 2015 10:44:41
Eccentricity: 0.0006258
inclination: 69.9369°
perigee height: 558 km
apogee height: 567 km
right ascension of ascending node: 58.1683°
argument of perigee: 212.5677°
revolutions per day: 15.01290571
mean anomaly at epoch: 307.3847°
orbit number at epoch: 48292

The dashed part of the orbit path shows where the satellite is in the earth's shadow,  

DLR